User: anonymous   Login
Location: Baix
(44.7118°N, 4.7648°E)
Time: 20:02:16
(UTC+00:00)
Language:

deb Explorer IX - Orbit

View from above orbital plane
View from above orbital plane
View from above satellite
View from above satellite

Ground track
Ground track

The orbit data is extracted from the following two-line orbital elements,

1 00085U 61004C   21169.59776956  .00002004  00000-0  44250-3 0  9991
2 00085  38.7709 311.3077 0384844  60.9599 302.9138 14.21786296983204
Epoch (UTC): 18 June 2021 14:20:47
Eccentricity: 0.0384844
inclination: 38.7709°
perigee height: 542 km
apogee height: 1096 km
right ascension of ascending node: 311.3077°
argument of perigee: 60.9599°
revolutions per day: 14.21786296
mean anomaly at epoch: 302.9138°
orbit number at epoch: 98320

The dashed part of the orbit path shows where the satellite is in the earth's shadow,  

DLR